Date,TemperatureHighF,TemperatureAvgF,TemperatureLowF,DewpointHighF,DewpointAvgF,DewpointLowF,HumidityHigh,HumidityAvg,HumidityLow,PressureMaxIn,PressureMinIn,WindSpeedMaxMPH,WindSpeedAvgMPH,GustSpeedMaxMPH,PrecipitationSumIn
2013-1-1,23.4,19.3,14.4,20.1,13.4,10.1,92,78,63,30.39,30.24,8,2,14,0.00
2013-1-2,35.4,24.8,14.5,26.3,18.4,9.3,83,76,68,30.35,30.20,11,2,20,0.00
2013-1-3,37.1,30.0,24.4,30.5,24.5,20.4,89,80,66,30.48,30.32,8,2,17,0.01
2013-1-4,42.2,30.8,21.6,29.1,24.2,18.6,92,77,59,30.48,30.32,14,3,26,0.00
2013-1-5,41.7,36.0,31.6,35.3,30.5,25.8,88,80,76,30.32,30.12,10,4,23,0.00
2013-1-6,38.2,30.4,23.4,26.3,22.5,18.6,83,73,53,30.44,30.20,12,4,26,0.00
2013-1-7,47.8,36.1,26.3,30.3,25.9,20.7,82,68,48,30.38,30.13,11,3,23,0.00
2013-1-8,53.2,42.5,32.6,39.1,32.0,26.2,78,67,48,30.22,30.03,11,3,23,0.00
2013-1-9,54.4,42.5,33.8,39.1,33.4,29.3,85,71,49,30.47,30.22,5,1,14,0.00
2013-1-10,50.3,42.9,38.0,49.5,39.0,28.6,98,87,60,30.42,29.78,9,4,20,0.22
2013-1-11,60.7,54.8,49.4,50.0,48.1,46.6,98,80,61,29.81,29.63,12,6,23,0.00
2013-1-12,57.0,33.2,24.2,47.3,25.0,16.8,92,73,40,30.12,29.73,13,7,26,0.00
2013-1-13,25.1,19.7,14.4,16.9,12.3,8.2,79,73,65,30.45,30.09,11,4,20,0.00
2013-1-14,28.1,19.4,10.9,15.1,11.2,6.8,85,71,52,30.60,30.45,5,0,11,0.00
2013-1-15,29.6,21.6,12.8,18.2,13.7,8.0,83,71,56,30.50,30.26,5,0,10,0.00
2013-1-16,41.7,30.4,18.8,27.9,20.6,12.1,76,67,54,30.27,30.09,14,4,25,0.00
2013-1-17,43.5,35.2,29.2,31.7,28.1,26.0,92,76,54,30.54,30.23,9,3,17,0.00
2013-1-18,54.9,42.5,31.5,35.9,31.3,26.3,82,66,46,30.49,30.08,18,8,31,0.00
2013-1-19,59.7,48.3,40.8,37.2,33.9,30.6,75,59,37,30.27,30.01,14,7,27,0.00
2013-1-20,41.1,28.0,20.8,31.0,14.6,10.4,72,57,43,30.46,30.27,9,4,17,0.00
2013-1-21,21.1,17.8,15.5,12.4,5.0,-2.3,78,58,37,30.52,30.46,11,4,22,0.00
2013-1-22,28.0,19.3,13.6,10.4,5.9,1.0,66,56,44,30.54,30.39,3,1,11,0.00
2013-1-23,45.7,28.5,14.8,25.2,16.9,8.6,79,63,43,30.50,30.26,9,2,18,0.00
2013-1-24,26.2,20.2,10.5,16.5,8.5,2.9,74,60,52,30.62,30.26,11,5,19,0.00
2013-1-25,45.1,33.4,23.4,23.4,17.7,10.9,63,53,42,30.31,30.22,7,1,18,0.00
2013-1-26,47.9,36.2,27.0,30.0,25.4,22.0,83,65,48,30.39,30.18,7,3,14,0.00
2013-1-27,60.5,48.3,35.3,55.8,43.6,26.3,94,84,64,30.19,29.81,11,6,25,0.10
2013-1-28,73.9,64.6,56.5,61.8,58.0,53.8,92,80,62,29.90,29.70,13,5,30,0.00
2013-1-29,67.8,52.7,36.5,61.6,50.1,35.5,97,91,79,29.70,29.47,11,4,22,1.41
2013-1-30,36.6,28.9,24.3,35.6,24.4,16.6,96,83,69,30.04,29.46,17,10,32,0.01
2013-1-31,24.7,19.4,10.4,20.0,11.0,1.6,82,70,52,30.57,30.02,18,7,32,0.00
2013-2-1,27.6,18.3,7.5,17.7,8.2,0.4,74,65,54,30.59,30.25,7,2,14,0.00
2013-2-2,44.5,33.6,26.0,35.7,25.5,17.0,82,72,63,30.28,30.11,15,4,18,0.00
2013-2-3,43.8,37.8,32.0,33.9,23.9,15.0,80,59,39,30.33,29.93,14,4,22,0.00
2013-2-4,43.9,36.0,26.6,33.3,28.1,23.0,87,73,64,30.05,29.85,12,4,22,0.00
2013-2-5,55.6,38.8,24.1,37.2,28.9,21.3,91,70,41,30.17,29.95,11,3,21,0.00
2013-2-6,61.2,45.5,29.8,40.2,34.1,26.6,95,66,44,30.18,29.96,10,4,18,0.00
2013-2-7,50.1,43.8,34.1,46.5,40.1,29.6,95,87,65,30.23,29.91,13,5,26,0.56
2013-2-8,35.0,32.4,30.6,30.0,28.2,27.1,87,84,78,30.42,30.23,10,4,19,0.00
2013-2-9,48.0,37.1,29.7,37.0,31.4,26.9,92,81,56,30.34,29.87,10,6,17,0.03
2013-2-10,57.0,46.6,37.8,49.2,37.0,25.1,95,71,47,29.92,29.49,26,13,43,0.04
2013-2-11,48.2,39.6,33.5,29.5,27.1,24.8,74,61,43,30.21,29.93,14,6,29,0.00
2013-2-12,40.2,34.5,27.3,29.9,26.9,23.0,86,74,58,30.23,30.01,2,0,9,0.00
2013-2-13,54.5,41.6,30.5,36.2,28.8,24.7,80,63,37,30.01,29.85,10,3,21,0.00
2013-2-14,49.5,42.9,36.9,34.4,30.8,26.2,76,63,49,30.18,29.86,12,4,19,0.01
2013-2-15,37.2,31.2,24.8,28.8,17.2,10.7,76,57,35,30.42,30.19,13,6,23,0.00
2013-2-16,35.7,29.0,18.8,23.7,19.0,14.2,82,67,49,30.39,30.17,7,2,20,0.00
2013-2-17,53.5,36.1,28.5,33.9,25.3,22.3,78,66,46,30.17,29.94,8,3,15,0.00
2013-2-19,33.0,26.9,21.2,15.1,10.7,7.6,71,51,36,30.43,30.26,18,7,28,0.00
2013-2-20,26.2,20.7,14.6,17.3,11.5,6.2,74,67,57,30.49,30.31,6,2,15,0.00
2013-2-21,26.5,23.7,21.2,25.0,19.0,-99.9,94,86,71,30.33,29.85,13,5,28,0.00
2013-2-22,30.3,25.8,18.9,26.8,22.3,15.4,95,87,77,30.15,29.85,11,2,20,0.01
2013-2-23,33.4,23.5,13.7,24.6,17.9,11.2,90,79,63,30.15,30.05,3,0,13,0.00
2013-2-24,40.7,30.0,15.7,29.3,22.8,12.9,90,75,59,30.15,30.02,6,2,12,0.00
2013-2-25,38.6,32.4,28.1,31.7,21.1,-99.9,94,74,69,30.07,29.72,16,-49,27,0.00
2013-2-26,33.8,32.8,31.6,32.0,31.0,30.1,100,93,88,29.87,29.55,12,4,25,0.00
2013-2-27,32.3,30.9,29.8,30.1,28.2,26.0,95,89,81,30.07,29.86,13,7,24,0.00
2013-2-28,34.5,31.0,27.2,27.7,26.0,23.4,87,82,73,30.25,30.06,13,7,22,0.00
2013-3-1,30.3,30.1,29.6,26.5,26.3,25.9,86,86,85,30.24,30.22,5,2,14,0.00
2013-3-4,43.8,40.6,37.2,33.7,32.2,30.7,79,72,66,29.98,29.74,7,3,16,0.00
2013-3-5,36.8,32.7,29.2,32.6,25.0,20.3,94,74,64,30.38,29.98,20,12,33,0.00
2013-3-6,34.2,28.4,23.8,23.7,20.9,17.9,84,73,64,30.50,30.38,11,2,23,0.00
2013-3-7,43.4,32.7,21.4,31.7,25.5,18.1,87,75,61,30.41,30.25,9,4,16,0.00
2013-3-8,47.8,40.3,33.2,37.1,33.2,28.0,86,76,64,30.32,30.08,10,6,17,0.01
2013-3-9,56.4,45.7,39.7,48.9,41.6,36.1,96,86,68,30.08,29.69,10,4,17,0.00
2013-3-10,54.7,44.6,32.0,51.5,42.3,28.3,97,92,72,29.89,29.61,14,6,25,0.00
2013-3-11,35.0,31.0,28.1,28.5,25.5,23.8,89,80,67,30.07,29.85,14,8,28,0.00
2013-3-12,45.5,35.7,29.5,31.9,25.9,22.7,82,68,48,30.37,30.07,20,6,37,0.00
2013-3-13,42.7,33.8,25.3,26.2,22.8,19.8,81,65,48,30.55,30.37,11,3,18,0.00
2013-3-14,69.2,50.2,32.8,45.1,34.9,25.3,75,57,40,30.41,30.09,14,4,25,0.00
2013-3-15,79.0,59.5,39.0,53.7,45.6,35.5,89,62,37,30.12,29.67,14,4,25,0.00
2013-3-16,62.7,43.9,37.2,49.1,36.6,29.9,88,76,60,30.12,29.69,15,7,27,0.00
2013-3-17,37.0,34.0,31.4,33.3,30.4,27.5,94,87,76,30.14,29.83,11,6,21,0.01
2013-3-18,51.9,41.1,33.9,39.0,31.2,21.7,96,71,38,30.12,29.80,15,6,30,0.00
2013-3-19,43.7,36.6,32.6,34.5,23.9,14.2,92,61,36,30.30,30.10,10,1,18,0.00
2013-3-20,37.0,31.5,24.3,32.8,16.9,8.4,92,57,31,30.44,30.21,14,7,28,0.00
2013-3-21,30.9,27.9,23.7,26.9,18.0,10.7,85,66,48,30.22,30.01,7,3,14,0.00
2013-3-22,36.8,33.3,30.2,30.3,27.8,25.3,85,80,75,30.08,30.02,7,2,13,0.00
2013-3-23,43.4,36.5,33.2,34.8,30.4,27.9,94,79,60,30.10,29.94,12,5,21,0.01
2013-3-24,33.5,30.9,26.8,32.2,28.3,21.8,95,90,80,30.09,29.82,10,2,20,0.00
2013-3-25,33.6,29.5,23.7,27.0,24.4,20.3,91,81,72,30.38,30.07,14,5,26,0.00
2013-3-26,39.3,31.8,25.4,26.9,24.0,21.8,87,73,56,30.48,30.38,6,2,14,0.00
2013-3-27,46.5,36.6,26.8,35.4,29.3,22.3,87,75,59,30.41,30.28,11,3,17,0.00
2013-3-28,62.4,49.1,37.3,43.9,38.1,32.0,81,67,46,30.32,30.19,8,3,15,0.00
2013-3-29,66.9,52.3,38.5,46.4,39.6,35.0,88,65,33,30.26,30.16,7,3,15,0.00
2013-3-30,57.7,51.2,46.4,53.8,47.0,38.2,94,86,67,30.17,29.90,9,3,18,0.01
2013-3-31,65.9,53.7,45.1,50.1,42.6,31.8,97,70,39,30.01,29.94,13,3,24,0.00
2013-4-1,48.4,40.3,33.8,35.1,25.6,17.4,84,57,34,30.34,30.02,10,5,23,0.00
2013-4-2,35.2,31.5,29.2,23.5,21.8,21.1,73,67,58,30.41,30.34,3,0,7,0.00
2013-4-3,50.3,46.8,42.7,27.6,24.4,18.8,54,42,30,30.42,30.29,8,3,18,0.00
2013-4-4,62.1,49.8,38.4,31.5,28.7,26.2,74,46,27,30.30,30.10,5,1,12,0.00
2013-4-5,69.4,56.0,42.4,45.3,38.8,28.5,75,54,39,30.21,29.92,8,3,18,0.00
2013-4-6,74.3,63.5,55.7,52.6,45.4,38.3,60,52,39,29.92,29.67,21,8,34,0.00
2013-4-7,76.1,62.5,48.6,55.6,48.2,42.1,91,61,36,29.90,29.68,9,2,18,0.01
2013-4-8,74.8,65.4,56.3,63.7,59.2,52.9,93,81,67,29.77,29.69,13,2,28,0.00
2013-4-9,73.8,68.6,63.9,63.9,61.1,59.0,85,77,69,29.81,29.68,11,4,19,0.00
2013-4-10,69.5,49.4,43.1,62.7,47.3,41.8,96,93,78,29.93,29.69,22,6,33,0.00
2013-4-11,42.8,38.6,35.7,41.5,32.6,29.4,95,80,64,29.83,29.76,13,7,25,0.00
2013-4-12,49.2,40.9,34.9,36.4,32.0,28.3,79,71,57,30.07,29.80,14,6,24,0.32
2013-4-13,60.6,47.9,35.6,44.0,37.0,31.1,85,67,51,30.13,29.80,10,2,17,0.00
2013-4-14,78.8,63.7,50.6,57.4,49.8,41.7,90,63,37,29.80,29.50,17,8,33,0.10
2013-4-15,58.5,50.8,45.9,54.3,42.4,34.8,89,73,61,30.03,29.72,11,4,19,0.17
2013-4-16,47.0,44.4,42.2,39.7,37.0,34.6,85,75,65,30.21,30.03,10,6,19,0.01
2013-4-17,56.9,50.3,45.8,56.3,48.5,39.7,98,93,79,30.14,29.66,11,4,20,1.15
2013-4-18,53.7,43.3,37.9,53.1,40.1,30.7,98,89,73,29.94,29.53,17,9,29,0.40
2013-4-19,51.1,42.1,34.4,31.2,28.4,24.4,77,60,37,30.15,29.92,16,10,31,0.00
2013-4-20,55.9,45.1,33.5,35.6,29.7,25.5,76,56,36,30.33,30.15,9,2,15,0.00
2013-4-21,68.8,57.7,45.8,44.9,40.6,33.8,75,54,35,30.30,30.15,12,6,24,0.00
2013-4-22,69.0,59.3,48.8,46.8,43.4,36.1,73,56,33,30.20,29.94,10,4,18,0.00
2013-4-23,55.8,40.0,35.8,49.3,37.3,33.9,94,90,75,30.19,29.99,15,8,28,0.56
2013-4-24,52.7,42.1,32.9,34.8,31.0,26.1,94,67,38,30.32,30.19,11,4,21,0.00
2013-4-25,66.1,53.6,40.5,45.6,38.6,33.6,77,59,40,30.37,30.21,10,2,20,0.00
2013-4-26,57.8,52.7,48.4,49.0,46.5,43.0,94,80,62,30.29,30.20,12,4,22,0.43
2013-4-27,53.1,50.1,47.6,50.5,48.4,46.3,96,94,90,30.26,30.03,8,2,16,0.33
2013-4-28,71.9,58.2,44.7,56.7,50.8,43.6,97,78,53,30.04,29.84,7,2,15,0.00
2013-4-29,83.8,69.8,55.6,66.2,58.5,49.5,81,68,51,29.86,29.66,10,5,23,0.00
2013-4-30,83.8,74.2,64.1,59.9,56.2,51.2,78,55,33,29.85,29.68,12,5,26,0.00
2013-5-1,84.1,68.7,49.3,62.2,52.4,-99.9,76,59,42,30.15,29.85,15,5,27,0.00
2013-5-2,49.0,40.8,33.0,41.8,36.5,31.7,95,85,76,30.39,30.14,16,11,27,0.32
2013-5-3,35.5,34.1,32.9,34.2,32.9,31.6,96,95,94,30.32,29.93,11,6,21,0.89
2013-5-4,47.1,40.8,34.3,41.9,37.6,33.0,96,89,77,30.08,29.88,6,1,13,0.02
2013-5-5,64.0,52.5,45.6,55.2,48.3,41.6,96,86,69,30.14,30.04,14,5,23,0.00
2013-5-6,74.1,59.7,51.0,58.9,52.6,49.6,96,79,48,30.13,30.03,11,4,18,0.00
2013-5-7,80.1,66.0,51.5,57.5,52.9,49.8,95,67,39,30.10,29.99,4,1,12,0.00
2013-5-8,74.6,65.9,56.5,59.5,56.0,51.9,88,71,52,30.04,29.90,9,2,18,0.00
2013-5-9,78.1,66.1,59.5,64.0,60.1,57.5,95,82,51,29.94,29.85,12,2,21,0.10
2013-5-10,65.9,59.2,54.5,59.4,53.9,50.3,94,83,64,30.06,29.89,10,3,18,0.00
2013-5-11,66.7,57.5,48.9,51.2,39.8,30.5,92,57,28,30.26,30.05,16,6,30,0.01
2013-5-12,64.9,53.6,39.6,42.6,32.9,26.1,78,49,26,30.32,30.17,7,1,16,0.00
2013-5-13,78.3,63.1,45.8,57.1,47.5,39.1,83,59,37,30.20,29.96,8,3,19,0.00
2013-5-14,92.2,77.4,63.1,61.5,56.6,52.6,79,53,28,29.96,29.79,18,8,36,0.00
2013-5-15,87.0,75.9,66.4,68.5,61.9,56.1,81,63,50,29.90,29.80,12,5,24,0.00
2013-5-16,82.1,71.3,61.5,64.9,61.9,58.3,91,74,52,29.91,29.81,8,2,17,0.00
2013-5-17,79.0,68.8,59.1,63.7,60.5,56.8,93,76,56,29.96,29.87,2,0,9,0.00
2013-5-18,87.5,75.0,61.8,70.6,65.7,59.8,94,74,52,29.94,29.76,10,3,18,0.00
2013-5-19,86.1,74.3,61.8,71.0,65.7,59.8,93,76,56,29.85,29.54,19,5,28,1.21
2013-5-20,77.5,66.0,61.0,68.9,61.3,-99.9,94,87,70,29.79,29.63,13,5,27,0.35
2013-5-21,73.4,66.4,60.1,63.0,59.1,54.3,92,78,65,29.79,29.67,8,2,18,0.00
2013-5-22,67.0,62.3,56.4,55.7,53.3,51.3,84,73,63,29.94,29.73,9,3,21,0.00
2013-5-23,67.1,61.5,55.4,56.4,53.3,50.3,84,75,66,30.25,29.94,9,3,21,0.00
2013-5-24,71.5,61.4,51.2,54.5,49.6,46.3,94,68,41,30.38,30.19,13,5,25,0.00
2013-5-25,82.7,69.6,58.5,67.8,58.6,47.3,83,68,60,30.22,30.03,10,4,19,0.00
2013-5-26,85.9,75.2,65.4,70.6,66.8,62.4,91,76,58,30.08,29.91,12,3,24,0.00
2013-5-27,78.6,69.3,62.4,70.3,64.7,59.8,97,85,73,30.01,29.72,15,4,27,1.35
2013-5-28,76.9,73.4,69.9,70.8,68.6,66.5,90,85,77,29.84,29.65,15,4,25,0.07
2013-5-29,85.2,74.7,64.3,70.4,66.3,61.0,91,76,57,29.88,29.67,12,6,26,0.03
2013-5-30,72.3,65.8,62.6,67.0,62.2,60.4,94,88,75,29.77,29.62,14,7,30,1.40
2013-5-31,79.6,67.7,61.1,71.1,64.5,59.7,96,90,75,29.84,29.68,13,4,23,1.70
2013-6-1,72.8,66.4,60.9,63.9,58.5,53.5,95,77,55,29.97,29.68,11,4,26,0.00
2013-6-2,66.6,60.5,56.8,55.7,51.9,47.5,85,74,56,30.09,29.96,9,4,19,0.00
2013-6-3,73.3,62.8,50.1,57.7,52.0,46.5,88,69,54,30.11,29.94,8,2,16,0.00
2013-6-4,73.6,65.7,59.5,66.9,60.4,55.1,92,83,75,30.05,29.91,9,4,16,0.06
2013-6-5,71.5,65.2,60.1,67.0,62.1,57.8,95,90,83,30.01,29.91,5,1,11,0.35
2013-6-6,76.4,69.0,62.3,63.7,57.6,51.9,96,69,45,29.97,29.91,8,2,16,0.00
2013-6-7,77.1,66.3,55.4,57.8,54.6,52.1,93,68,44,30.01,29.92,9,2,18,0.00
2013-6-8,80.0,69.2,55.1,60.4,56.6,52.4,92,66,45,29.97,29.80,9,3,18,0.00
2013-6-9,80.2,70.7,63.1,64.4,61.1,57.4,93,73,48,29.89,29.77,11,4,24,0.26
2013-6-10,88.3,72.9,62.2,65.4,61.7,57.7,86,69,44,29.91,29.81,8,2,17,0.00
2013-6-11,94.4,81.7,69.5,70.5,67.2,63.5,86,64,42,29.90,29.79,15,5,26,0.00
2013-6-12,94.5,84.9,75.6,74.3,71.5,65.7,84,65,49,29.87,29.74,19,8,34,0.00
2013-6-13,89.3,77.0,65.1,64.9,60.7,56.6,75,58,37,30.04,29.87,13,4,24,0.00
2013-6-14,87.2,78.2,67.6,68.1,65.1,61.8,86,65,48,30.06,29.91,12,4,20,0.00
2013-6-15,87.4,74.1,67.8,76.1,68.5,64.3,94,83,68,30.05,29.88,17,5,33,1.45
2013-6-16,70.4,68.7,68.1,67.0,66.3,66.0,94,92,89,29.96,29.92,2,0,6,0.00
2013-6-17,77.1,71.3,67.9,70.5,67.7,65.2,95,88,78,29.98,29.91,4,1,12,0.95
2013-6-18,89.1,76.4,67.4,70.5,65.3,60.1,93,71,41,30.02,29.96,11,2,25,0.01
2013-6-19,87.9,77.1,66.8,69.8,66.0,62.4,88,70,47,30.05,29.96,7,2,13,0.00
2013-6-20,89.1,79.8,69.0,71.7,68.7,65.1,88,70,54,30.04,29.92,10,5,21,0.00
2013-6-21,93.7,84.1,75.5,75.7,72.8,69.1,84,70,54,30.00,29.91,11,6,24,0.00
2013-6-22,93.7,83.9,73.6,74.8,72.9,70.2,91,71,52,30.00,29.85,12,4,21,0.00
2013-6-23,87.3,78.7,73.1,75.9,71.6,67.3,90,79,63,29.95,29.84,14,4,29,0.59
2013-6-24,91.9,82.2,73.9,75.8,72.1,69.4,87,73,55,29.98,29.80,10,4,27,0.00
2013-6-25,89.3,82.4,78.1,75.1,71.8,69.5,84,71,58,29.88,29.72,10,5,23,0.01
2013-6-26,98.4,86.6,75.7,76.4,70.9,62.2,85,62,32,29.85,29.69,11,5,21,0.00
2013-6-27,92.5,81.7,75.6,74.8,70.9,67.2,85,71,47,29.98,29.79,14,1,28,0.06
2013-6-28,89.7,80.0,70.4,71.2,65.0,56.7,93,64,34,29.94,29.82,14,4,23,0.00
2013-6-29,84.1,74.5,67.3,66.3,61.4,58.3,82,65,43,29.85,29.76,19,6,32,0.07
2013-6-30,80.0,71.8,62.9,63.1,60.0,57.4,85,68,50,30.01,29.85,12,4,23,0.00
2013-7-1,83.8,73.5,61.1,59.4,55.3,50.4,84,56,34,30.10,30.01,14,4,23,0.00
2013-7-2,86.2,73.7,57.5,59.7,55.5,52.5,87,56,34,30.12,30.04,13,2,26,0.00
2013-7-3,83.3,71.1,62.6,64.2,59.2,56.9,82,67,46,30.08,30.00,6,1,15,0.06
2013-7-4,86.8,73.5,60.2,65.2,60.2,56.0,88,66,38,30.08,29.97,8,1,15,0.00
2013-7-5,89.5,77.2,63.9,64.6,61.8,58.7,85,62,39,30.02,29.92,7,2,15,0.00
2013-7-6,91.9,78.0,66.5,68.3,65.1,62.1,87,66,41,29.99,29.90,11,3,19,0.00
2013-7-7,92.0,80.6,71.5,72.4,68.2,65.1,85,67,49,29.98,29.92,11,3,22,0.02
2013-7-8,94.4,82.9,74.7,75.4,70.2,66.2,76,66,49,30.03,29.96,8,2,18,0.00
2013-7-9,97.7,85.9,75.3,76.8,73.8,69.8,84,68,50,30.00,29.83,10,3,18,0.00
2013-7-10,96.6,87.4,80.8,74.3,68.8,59.1,72,56,30,30.00,29.86,8,3,16,0.00
2013-7-11,87.8,78.5,69.7,64.9,61.1,57.5,73,57,39,30.08,29.98,8,2,16,0.00
2013-7-12,88.8,76.3,65.2,64.0,61.5,59.5,85,62,39,30.09,29.99,10,4,18,0.00
2013-7-13,86.8,75.6,64.9,66.4,62.8,58.9,81,66,49,30.07,29.98,9,3,17,0.00
2013-7-14,88.5,77.4,65.6,66.9,63.7,60.7,86,65,42,30.10,30.02,9,3,18,0.00
2013-7-15,89.8,79.8,71.0,71.9,69.0,66.6,87,71,51,30.19,30.10,8,2,18,0.00
2013-7-16,95.6,83.2,72.3,74.6,71.5,68.2,93,70,44,30.26,30.17,6,1,12,0.00
2013-7-17,94.9,85.1,76.4,74.3,72.2,70.4,83,66,49,30.30,30.17,4,1,11,0.00
2013-7-18,96.7,86.8,74.6,74.7,71.0,67.3,89,62,39,30.19,29.97,7,2,16,0.00
2013-7-19,98.8,87.5,76.0,72.8,69.9,67.0,78,58,37,29.98,29.83,9,2,19,0.00
2013-7-20,88.3,81.7,75.0,76.1,71.5,68.2,87,72,58,29.94,29.84,6,1,12,0.00
2013-7-21,85.2,77.5,71.9,74.6,71.1,69.1,92,81,65,29.91,29.80,10,1,20,0.26
2013-7-22,94.6,81.9,70.2,76.7,71.9,68.1,94,74,53,29.85,29.74,9,1,19,0.01
2013-7-23,88.8,80.0,72.7,72.5,69.5,63.7,87,71,55,29.92,29.76,8,2,18,0.00
2013-7-24,87.1,76.9,67.7,64.3,62.2,60.4,82,62,43,30.04,29.91,7,2,13,0.00
2013-7-25,84.9,76.9,68.1,71.9,65.8,61.3,86,70,50,30.11,30.01,6,1,13,0.03
2013-7-26,85.6,75.1,69.6,73.3,66.9,56.4,93,77,48,30.04,29.96,6,1,16,0.39
2013-7-27,79.6,69.7,57.2,58.7,55.0,51.5,90,62,39,30.10,29.98,8,2,18,0.00
2013-7-28,80.5,69.5,56.6,58.5,54.3,51.0,86,61,39,30.08,30.02,4,0,13,0.00
2013-7-29,71.6,67.8,63.7,67.5,63.1,55.8,95,86,61,30.14,30.01,10,3,17,0.36
2013-7-30,85.0,75.9,68.9,75.8,71.7,67.4,96,87,72,30.05,29.98,4,0,10,0.03
2013-7-31,83.2,76.1,70.8,73.0,68.6,66.3,89,78,60,30.10,30.02,7,1,13,0.00
2013-8-1,89.0,78.5,67.6,71.4,67.4,64.3,90,71,47,30.10,29.94,4,1,11,0.00
2013-8-2,84.4,76.5,70.4,74.8,70.7,65.2,92,83,72,29.98,29.86,11,1,18,0.13
2013-8-3,85.5,76.6,70.3,73.9,70.7,66.4,94,83,67,30.13,29.91,8,1,16,0.00
2013-8-4,75.1,72.1,67.7,70.0,65.4,61.3,93,80,71,30.16,30.03,7,2,14,0.05
2013-8-5,87.2,77.1,69.9,76.0,72.1,68.1,95,85,67,30.06,29.82,6,0,11,0.00
2013-8-6,90.7,80.0,70.6,77.5,73.6,68.8,95,82,62,29.88,29.78,18,2,34,0.49
2013-8-7,87.2,79.6,73.4,77.3,73.2,67.5,92,81,64,29.94,29.76,8,2,20,0.28
2013-8-8,79.8,74.6,68.0,70.5,67.4,64.1,88,79,70,30.00,29.91,6,1,13,0.00
2013-8-9,81.3,76.3,71.9,73.4,69.5,66.1,90,80,71,30.09,29.98,4,0,7,0.03
2013-8-10,86.7,76.9,68.2,69.2,64.8,61.2,91,68,46,30.20,30.08,8,2,16,0.00
2013-8-11,87.0,76.0,64.4,71.7,65.4,58.7,86,71,53,30.14,30.01,5,1,13,0.00
2013-8-12,87.9,77.9,70.9,72.0,70.4,68.8,94,79,59,30.04,29.94,6,1,11,0.21
2013-8-13,84.6,75.9,69.3,69.3,63.4,59.4,87,66,46,30.12,30.00,6,0,14,0.00
2013-8-14,78.6,68.7,59.8,61.6,57.4,54.3,88,69,45,30.21,30.11,8,1,14,0.00
2013-8-15,75.3,67.4,59.6,59.2,57.2,55.4,87,71,54,30.16,30.05,7,2,13,0.00
2013-8-16,78.4,69.1,60.7,59.5,57.0,55.0,84,67,47,30.18,30.09,6,2,13,0.00
2013-8-17,80.9,69.9,56.9,60.2,57.5,53.7,90,66,46,30.22,30.11,7,1,14,0.00
2013-8-18,82.8,72.4,58.1,66.0,61.7,54.2,88,70,53,30.19,30.08,7,1,13,0.00
2013-8-19,86.3,75.5,63.0,67.9,64.3,60.6,93,70,45,30.11,30.01,7,1,16,0.00
2013-8-20,89.1,77.3,66.1,69.7,66.4,62.0,88,71,50,30.07,29.99,6,1,16,0.00
2013-8-21,91.1,79.1,67.1,71.9,68.1,63.8,91,71,48,30.08,30.00,7,1,16,0.00
2013-8-22,91.7,81.2,72.8,72.8,70.6,68.1,87,72,49,30.09,30.00,4,0,12,0.00
2013-8-23,91.5,81.5,72.0,74.1,70.7,68.7,91,72,48,30.09,30.00,4,1,11,0.00
2013-8-24,92.1,80.9,70.6,74.4,70.8,67.0,93,73,52,30.15,30.04,6,2,14,0.00
2013-8-25,93.0,80.7,68.8,74.7,70.4,65.2,90,72,51,30.22,30.11,7,2,14,0.00
2013-8-26,94.0,82.8,73.0,74.5,72.0,69.0,88,71,51,30.17,30.04,8,2,18,0.00
2013-8-27,92.9,82.6,72.3,72.2,69.5,67.3,88,67,44,30.06,29.96,10,3,24,0.00
2013-8-28,93.5,82.5,71.7,74.0,70.2,66.5,85,68,44,30.04,29.98,6,2,15,0.00
2013-8-29,95.7,85.1,75.2,75.7,73.2,69.7,86,69,49,30.03,29.92,6,1,12,0.00
2013-8-30,99.3,86.5,76.2,74.5,72.8,69.9,86,66,40,29.95,29.80,10,3,18,0.00
2013-8-31,96.5,84.6,76.7,78.6,75.1,71.8,85,74,54,29.83,29.75,8,1,16,0.00
2013-9-1,91.6,79.2,69.7,75.1,70.0,63.1,94,75,50,29.95,29.75,16,2,32,0.28
2013-9-2,86.3,73.8,63.4,63.8,61.7,59.3,87,67,43,30.04,29.92,7,1,15,0.00
2013-9-3,87.8,73.4,60.8,62.4,58.9,54.6,82,63,38,30.11,30.01,3,0,9,0.00
2013-9-4,87.9,72.8,59.4,63.1,59.5,56.4,92,66,37,30.18,30.05,2,0,6,0.00
2013-9-5,86.7,86.6,86.6,60.1,59.8,59.5,41,40,40,30.13,30.13,5,4,12,0.00
2013-10-26,56.3,56.2,56.0,43.4,43.2,43.0,62,62,61,30.17,30.17,7,7,13,0.00
2013-10-28,67.9,59.6,44.4,51.2,46.8,37.6,77,64,43,30.21,30.14,5,1,12,0.00
2013-10-29,63.2,56.1,50.3,62.3,53.9,44.9,97,92,78,30.19,29.98,10,2,18,0.38
2013-10-30,69.5,65.9,63.3,66.3,64.0,61.8,98,94,87,30.01,29.75,12,4,23,0.98
2013-10-31,63.2,53.2,47.3,62.0,51.5,45.1,97,94,84,29.74,29.52,9,3,19,0.78
2013-11-1,60.0,50.9,44.4,46.0,43.1,40.4,92,76,56,29.98,29.65,13,4,27,0.06
2013-11-2,51.4,45.4,42.8,42.6,41.3,39.8,90,86,69,30.22,29.97,9,5,17,0.00
2013-11-26,28.2,24.9,22.4,16.4,14.6,12.4,67,65,60,30.45,30.39,11,6,20,0.00
2013-11-27,31.8,24.0,16.8,16.9,13.2,10.2,76,64,47,30.51,30.27,6,2,14,0.00
2013-11-28,42.1,32.9,27.1,26.1,21.1,16.4,73,62,52,30.57,30.25,7,3,17,0.00
2013-11-29,50.4,35.0,23.9,32.2,25.4,18.5,81,69,49,30.58,30.35,6,2,14,0.00
2013-11-30,54.3,43.7,33.8,40.3,34.7,27.4,87,71,59,30.34,30.13,9,2,18,0.00
2013-12-1,55.6,42.7,29.8,41.3,35.8,28.0,94,78,52,30.17,29.94,1,0,7,0.00
2013-12-2,49.4,42.2,36.3,44.2,39.5,33.0,96,90,81,29.94,29.67,8,2,16,0.00
2013-12-3,60.9,47.7,36.5,51.8,44.3,35.1,97,89,68,29.67,29.56,7,1,16,0.01
2013-12-4,51.3,39.8,25.2,50.0,37.1,18.7,96,90,76,30.05,29.55,13,5,26,0.00
2013-12-5,25.1,20.4,18.6,18.6,11.7,9.1,81,69,62,30.46,30.05,15,7,28,0.00
2013-12-6,19.0,16.3,11.9,9.1,4.2,1.5,66,59,48,30.75,30.45,12,7,23,0.00
2013-12-7,21.7,14.5,5.5,7.5,4.6,0.8,82,65,49,30.83,30.51,7,2,15,0.00
2013-12-8,24.3,21.7,19.3,22.5,16.8,7.4,93,82,58,30.51,30.08,6,2,16,0.00
2013-12-9,21.3,14.5,11.4,19.3,9.4,5.0,92,80,69,30.48,30.24,8,2,19,0.00
2013-12-10,37.2,23.7,11.1,21.2,13.8,4.4,76,66,49,30.42,30.31,11,3,22,0.01
2013-12-11,25.4,20.7,10.1,20.4,11.1,2.8,85,67,46,30.73,30.32,14,4,25,0.01
2013-12-12,45.6,27.8,10.3,25.2,15.0,3.4,77,60,36,30.69,30.27,10,3,21,0.00
2013-12-13,35.9,32.9,27.1,34.3,29.8,22.2,95,88,74,30.26,29.95,8,2,14,0.75
2013-12-14,33.2,28.0,21.5,31.9,25.3,17.6,96,90,82,30.30,29.94,13,7,25,0.01
2013-12-15,42.8,31.9,20.7,34.3,26.5,17.3,89,81,67,30.29,30.03,10,1,18,0.01
2013-12-16,43.8,32.3,25.5,38.3,29.3,23.8,95,89,77,30.23,30.01,7,0,15,0.01
2013-12-17,45.9,36.0,28.2,34.5,27.8,20.9,91,73,51,30.34,30.22,12,2,21,0.00
2013-12-18,59.5,44.2,28.3,41.5,32.7,21.8,79,65,50,30.31,29.86,12,5,31,0.00
2013-12-19,57.2,52.7,48.0,50.7,46.2,38.6,87,79,67,29.87,29.70,8,3,19,0.00
2013-12-20,54.4,31.9,24.2,51.0,29.7,21.8,94,91,86,29.99,29.68,12,5,20,0.00
2013-12-21,29.2,27.1,24.2,27.5,25.0,21.7,94,92,90,29.97,29.67,10,3,20,0.00
2013-12-22,28.6,23.5,14.4,27.1,20.7,11.2,94,89,84,30.46,29.76,10,4,18,0.00
2013-12-23,14.3,10.3,4.7,11.2,5.8,0.7,88,82,75,30.74,30.45,6,1,14,0.00
2013-12-24,26.9,15.8,2.1,24.6,11.6,-1.8,91,83,73,30.72,30.34,8,2,15,0.00
2013-12-25,38.7,32.0,27.0,32.1,28.1,24.7,93,86,71,30.41,30.32,9,2,18,0.17
2013-12-26,45.6,34.7,24.7,35.1,29.1,21.5,91,80,63,30.40,30.25,11,3,21,0.14
2013-12-27,51.9,38.9,28.3,39.7,33.1,25.9,93,80,59,30.40,30.24,5,2,15,0.02
2013-12-28,52.9,42.7,35.6,37.0,33.3,30.3,83,70,50,30.24,29.93,10,4,21,0.02
2013-12-29,40.0,21.4,12.1,32.0,13.3,2.4,85,71,54,30.42,29.95,17,9,30,0.00
2013-12-30,27.8,18.8,10.1,16.5,7.7,-0.1,72,62,49,30.43,30.27,8,2,16,0.00
2013-12-31,48.6,33.8,19.8,31.7,23.7,15.6,85,67,50,30.41,30.14,11,3,20,0.00
2014-1-1,37.9,23.3,11.8,26.3,17.9,8.7,88,80,62,30.35,30.10,13,6,25,0.00
2014-1-2,16.6,8.6,1.1,8.8,2.1,-2.9,87,75,59,30.61,30.35,13,4,22,0.00